Preview of NWS' New Version of Forecast
This preview is not operational and should not be used for support decisions.

Regional Weather Roundup (RWR)

Issued by National Weather Service (NWS)

                            
000
ASUS43 KLSX 221557
RWRMO 

WEATHER SUMMARY FOR MISSOURI
NATIONAL WEATHER SERVICE SPRINGFIELD MO
1100 AM CDT MON APR 22 2019

NOTE: "FAIR" INDICATES FEW OR NO CLOUDS BELOW 12,000 FEET WITH NO
       SIGNIFICANT WEATHER AND/OR OBSTRUCTIONS TO VISIBILITY.
       CURRENT SKY AND/OR WEATHER CONDITIONS ARE NOT AVAILABLE FOR
       CHILLICOTHE AND FARMINGTON.

MOZ001>031-035>038-043-044-053-054-221700-
...NORTHERN AND WESTERN MISSOURI...
  
CITY           SKY/WX    TMP DP  RH WIND       PRES   REMARKS
KANSAS CTY INT PTSUNNY   70  58  65 SW17G24   29.92R                  
LEE'S SUMMIT   CLOUDY    69  56  62 SW16G26   29.94R                  
ST JOSEPH      CLOUDY    71  59  65 SW17G24   29.91R                  
CHILLICOTHE      N/A     75  56  51 SW13G28   29.91S                  
     
$$
MOZ066>068-077>081-088>096-101>105-221700-
...SOUTHWEST MISSOURI...
  
CITY           SKY/WX    TMP DP  RH WIND       PRES   REMARKS
SPRINGFIELD    MOSUNNY   73  57  57 S18G25    30.03R                  
JOPLIN         CLOUDY    69  57  65 SW16      30.02R                  
BRANSON        MOSUNNY   73  54  49 S13G20    30.07R                  
               
$$
MOZ032>034-039>042-045>050-055>058-069>072-221700-
...CENTRAL MISSOURI...  
  
CITY           SKY/WX    TMP DP  RH WIND       PRES   REMARKS
COLUMBIA       NOT AVBL                                               
JEFFERSON CITY SUNNY     76  54  46 S14G24    29.96F                  
ROLLA          SUNNY     76  54  46 S16G23    30.01F                  
SEDALIA        CLOUDY    68  57  68 S18G29    29.97R                  
WARRENSBURG    CLOUDY    70  54  56 S14G25    29.95R                  
               
$$
MOZ051-052-059>065-221700-
...EAST CENTRAL MISSOURI...
  
CITY           SKY/WX    TMP DP  RH WIND       PRES   REMARKS
ST LOUIS INTL  CLOUDY    77  52  41 S15       30.01F                  
                   
$$
MOZ072>076-082>087-097>100-106>115-221700-
...SOUTH CENTRAL AND SOUTHEAST MISSOURI...
  
CITY           SKY/WX    TMP DP  RH WIND       PRES   REMARKS
CAPE GIRARDEAU FAIR      71  56  58 S10       30.13R                  
POPLAR BLUFF   FAIR      70  56  61 S14       30.13S                  
WEST PLAINS    SUNNY     73  52  47 SW12G23   30.08F                  
                                       
$$